Starlink 30287

operational
NORAD ID: 57709 Int'l Des: 2023-129 Owner: SPXS Country: US Constellation: starlink
LEOCIRCULAR

About Starlink 30287

Description loading...

Live Position

Loading 3D Globe...

Upcoming Passes

Altitude History

Altitude vs Time

uPlot chart will show altitude changes over time

Two-Line Element Set

1 57709U 23129M 25350.33553031 .00001263 00000-0 10851-3 0 9993
2 57709 43.0016 213.4047 0001020 265.6399 94.4327 15.02535311128116
Epoch: Dec 16, 2025 • Age: 23 hours

Current Status

Altitude 562.9 km
Velocity 7.59 km/s
Sub-Earth Point 43.06°N, 105.74°E
Launch Date Aug 27, 2023
Age 2.3 years
Type internet

Technical Details

Classification Payload
Mass 730.00 kg
Dry Mass 700.00 kg
Total Mass 730.00 kg
Length 0.30 m
Diameter 4.10 m
Span 29.00 m
Shape Box + pan
Manufacturer SPXS
Bus Type Starlink V2M
Phase Status In Orbit
Owner/State SPXS/US

Large Constellations

Loading constellations...